Location: Sollberg
(42.7389°N, 93.6369°W)
Time: 06:08:44
(UTC+00:00)

Envisat - Visible Passes

Search period start: 14 October 2024 00:00
Search period end: 24 October 2024 00:00
Orbit: 762 x 764 km, 98.3° (Epoch: 13 October)

Date Brightness Start Highest point End Pass type
(mag) Time Alt. Az. Time Alt. Az. Time Alt. Az.
14 Oct 4.9 09:12:54 10° NNE 09:14:57 24° NNE 09:14:57 24° NNE visible
14 Oct 4.7 10:53:11 10° NNW 10:55:06 16° NW 10:55:06 16° NW visible
15 Oct 5.7 08:35:54 10° NE 08:36:53 15° NE 08:36:53 15° NE visible
15 Oct 4.5 10:14:42 10° N 10:17:02 24° NNW 10:17:02 24° NNW visible
16 Oct 4.7 09:36:51 10° N 09:38:57 25° N 09:38:57 25° N visible
17 Oct 5.3 08:59:29 10° NNE 09:00:53 18° NNE 09:00:53 18° NNE visible
17 Oct 4.7 10:39:13 10° NNW 10:41:02 17° NNW 10:41:02 17° NNW visible
18 Oct 6.0 08:22:46 10° NE 08:22:49 10° NE 08:22:49 10° NE visible
18 Oct 4.6 10:01:01 10° N 10:02:58 22° N 10:02:58 22° N visible
19 Oct 5.1 09:23:20 10° NNE 09:24:53 20° NNE 09:24:53 20° NNE visible
19 Oct 5.0 11:04:14 10° NNW 11:05:01 12° NW 11:05:01 12° NW visible
20 Oct 5.7 08:46:09 10° NNE 08:46:48 13° NNE 08:46:48 13° NNE visible
20 Oct 4.8 10:25:22 10° N 10:26:57 18° NNW 10:26:57 18° NNW visible
21 Oct 4.9 09:47:22 10° N 09:48:52 20° N 09:48:52 20° N visible
22 Oct 5.5 09:09:51 10° NNE 09:10:47 15° NNE 09:10:47 15° NNE visible
22 Oct 5.0 10:50:02 10° NNW 10:50:56 13° NNW 10:50:56 13° NNW visible
23 Oct 5.0 10:11:36 10° N 10:12:51 17° N 10:12:51 17° N visible
